Weather History for Fairhope, AL

Change the Weather History Date:

Monday, May 27, 2013

  Actual Average (KBFM) Record (KBFM)
Temperature  
Mean Temperature 74 °F -  
Max Temperature 87 °F 83 °F 97 °F (2012)
Min Temperature 62 °F 66 °F 60 °F (2005)
Cooling Degree Days 10    
Growing Degree Days 24 (Base 50)    
Moisture  
Dew Point 64 °F    
Average Humidity 73    
Maximum Humidity 100    
Minimum Humidity 35    
Precipitation  
Precipitation 0.00 in - - ()
Sea Level Pressure  
Sea Level Pressure 30.13 in    
Wind  
Wind Speed 4 mph (SE)    
Max Wind Speed 16 mph    
Max Gust Speed 23 mph    
Visibility 7 miles    
Events Fog    
Averages and records for this station are not official NWS values.
T = Trace of Precipitation, MM = Missing Value Source: NWS Daily Summary

Daily Weather History Graph

Daily Weather History Graph

Search for Another Location

Airport:

Trip Planner

Search our weather history database for the weather conditions in past years. The results will help you decide how hot, cold, wet, or windy it might be!

Date:

Astronomy

May. 27, 2013 Rise Set
Actual Time 5:51 AM CDT 7:46 PM CDT
Civil Twilight 5:24 AM CDT 8:13 PM CDT
Nautical Twilight 4:51 AM CDT 8:46 PM CDT
Astronomical Twilight 4:16 AM CDT 9:20 PM CDT
Moon 10:30 PM CDT (5/27) 8:25 AM CDT (5/27)
Length of Visible Light 14h 49m
Length of Day
13h 55m
Waning Gibbous, 91% of the Moon is Illuminated
May 27
Waning Gibbous
May 31
Last Quarter
Jun 8
New
Jun 16
First Quarter
Jun 23
Full

Hourly Weather History & Observations

Time (CDT) Temp. Heat Index Dew Point Humidity Pressure Visibility Wind Dir Wind Speed Gust Speed Precip Events Conditions
12:15 AM 68.0 °F - 68.0 °F 100% 30.15 in 0.2 mi Calm Calm - N/A Fog Fog
12:35 AM 68.0 °F - 68.0 °F 100% 30.14 in 0.8 mi Calm Calm - N/A   Mostly Cloudy
12:55 AM 71.6 °F - 71.6 °F 100% 30.14 in 10.0 mi South 4.6 mph - N/A   Clear
1:15 AM 71.6 °F - 69.8 °F 94% 30.14 in 10.0 mi ESE 3.5 mph - N/A   Clear
1:35 AM 71.6 °F - 69.8 °F 94% 30.14 in 7.0 mi Calm Calm - N/A   Clear
1:55 AM 69.8 °F - 69.8 °F 100% 30.14 in 5.0 mi Calm Calm - N/A   Clear
2:15 AM 69.8 °F - 69.8 °F 100% 30.13 in 4.0 mi Calm Calm - N/A   Clear
2:35 AM 68.0 °F - 68.0 °F 100% 30.12 in 1.2 mi Calm Calm - N/A   Mist
2:55 AM 68.0 °F - 66.2 °F 94% 30.12 in 0.8 mi Calm Calm - N/A   Mostly Cloudy
3:15 AM 64.4 °F - 64.4 °F 100% 30.12 in 0.2 mi Calm Calm - N/A Fog Fog
3:35 AM 64.4 °F - 64.4 °F 100% 30.13 in 7.0 mi Calm Calm - N/A   Scattered Clouds
3:55 AM 64.4 °F - 64.4 °F 100% 30.12 in 0.8 mi Calm Calm - N/A   Mostly Cloudy
4:15 AM 64.4 °F - 64.4 °F 100% 30.12 in 1.0 mi Calm Calm - N/A   Mist
4:35 AM 64.4 °F - 64.4 °F 100% 30.12 in 0.5 mi Calm Calm - N/A Fog Fog
4:55 AM 64.4 °F - 64.4 °F 100% 30.12 in 1.8 mi Calm Calm - N/A   Mist
5:15 AM 64.4 °F - 64.4 °F 100% 30.12 in 1.2 mi Calm Calm - N/A   Mist
5:35 AM 64.4 °F - 64.4 °F 100% 30.13 in 7.0 mi Calm Calm - N/A   Clear
5:55 AM 64.4 °F - 64.4 °F 100% 30.13 in 1.5 mi Calm Calm - N/A   Mist
6:15 AM 64.4 °F - 64.4 °F 100% 30.14 in 1.5 mi Calm Calm - N/A   Mist
6:35 AM 66.2 °F - 64.4 °F 94% 30.14 in 3.0 mi Calm Calm - N/A   Clear
6:55 AM 66.2 °F - 64.4 °F 94% 30.15 in 5.0 mi Calm Calm - N/A   Clear
7:15 AM 68.0 °F - 68.0 °F 100% 30.16 in 7.0 mi Calm Calm - N/A   Clear
7:35 AM 69.8 °F - 69.8 °F 100% 30.16 in 10.0 mi Calm Calm - N/A   Clear
7:55 AM 71.6 °F - 69.8 °F 94% 30.17 in 10.0 mi Calm Calm - N/A   Clear
8:15 AM 73.4 °F - 69.8 °F 88% 30.18 in 10.0 mi Calm Calm - N/A   Clear
8:35 AM 73.4 °F - 69.8 °F 88% 30.18 in 10.0 mi ENE 3.5 mph - N/A   Clear
8:55 AM 77.0 °F - 69.8 °F 78% 30.19 in 10.0 mi ENE 3.5 mph - N/A   Clear
9:15 AM 78.8 °F - 69.8 °F 74% 30.18 in 10.0 mi East 4.6 mph - N/A   Clear
9:35 AM 80.6 °F 82.3 °F 64.4 °F 58% 30.18 in 7.0 mi SE 6.9 mph - N/A   Clear
9:55 AM 82.4 °F 83.4 °F 62.6 °F 51% 30.18 in 10.0 mi ESE 5.8 mph - N/A   Clear
10:15 AM 84.2 °F 85.0 °F 62.6 °F 48% 30.17 in 10.0 mi SSE 11.5 mph - N/A   Clear
10:35 AM 86.0 °F 85.4 °F 59.0 °F 40% 30.17 in 10.0 mi SSE 11.5 mph - N/A   Clear
10:55 AM 86.0 °F 84.5 °F 55.4 °F 35% 30.18 in 7.0 mi SSE 11.5 mph 18.4 mph N/A   Clear
11:15 AM 86.0 °F 84.9 °F 57.2 °F 37% 30.17 in 10.0 mi SSE 10.4 mph 18.4 mph N/A   Clear
11:35 AM 86.0 °F 84.9 °F 57.2 °F 37% 30.17 in 10.0 mi SE 12.7 mph 19.6 mph N/A   Clear
11:55 AM 86.0 °F 84.9 °F 57.2 °F 37% 30.17 in 10.0 mi SSE 12.7 mph 17.3 mph N/A   Clear
12:15 PM 87.8 °F 87.1 °F 59.0 °F 38% 30.17 in 7.0 mi SSE 10.4 mph - N/A   Clear
12:35 PM 86.0 °F 86.1 °F 60.8 °F 43% 30.17 in 10.0 mi SE 15.0 mph 23.0 mph N/A   Clear
12:55 PM 86.0 °F 86.1 °F 60.8 °F 43% 30.17 in 7.0 mi SSE 12.7 mph 19.6 mph N/A   Scattered Clouds
1:15 PM 86.0 °F 86.6 °F 62.6 °F 45% 30.16 in 10.0 mi SE 11.5 mph 21.9 mph N/A   Scattered Clouds
1:35 PM 86.0 °F 85.4 °F 59.0 °F 40% 30.16 in 10.0 mi SSE 16.1 mph - N/A   Scattered Clouds
1:55 PM 86.0 °F 86.1 °F 60.8 °F 43% 30.15 in 7.0 mi South 13.8 mph 19.6 mph N/A   Scattered Clouds
2:15 PM 86.0 °F 85.4 °F 59.0 °F 40% 30.14 in 10.0 mi SSE 16.1 mph - N/A   Clear
2:35 PM 87.8 °F 87.1 °F 59.0 °F 38% 30.14 in 10.0 mi South 11.5 mph 17.3 mph N/A   Clear
2:55 PM 86.0 °F 85.4 °F 59.0 °F 40% 30.12 in 10.0 mi South 15.0 mph 20.7 mph N/A   Clear
3:15 PM 86.0 °F 85.4 °F 59.0 °F 40% 30.12 in 10.0 mi SSE 12.7 mph 19.6 mph N/A   Clear
3:35 PM 86.0 °F 84.5 °F 55.4 °F 35% 30.11 in 10.0 mi SE 12.7 mph 18.4 mph N/A   Clear
3:55 PM 86.0 °F 85.4 °F 59.0 °F 40% 30.11 in 10.0 mi SSE 12.7 mph - N/A   Clear
4:15 PM 86.0 °F 86.1 °F 60.8 °F 43% 30.11 in 10.0 mi SSE 10.4 mph 16.1 mph N/A   Scattered Clouds
4:35 PM 86.0 °F 85.4 °F 59.0 °F 40% 30.10 in 10.0 mi South 13.8 mph 18.4 mph N/A   Clear
4:55 PM 86.0 °F 85.4 °F 59.0 °F 40% 30.10 in 10.0 mi SSE 12.7 mph 17.3 mph N/A   Clear
5:15 PM 84.2 °F 85.6 °F 64.4 °F 51% 30.10 in 10.0 mi SSE 11.5 mph - N/A   Clear
5:35 PM 82.4 °F 83.9 °F 64.4 °F 54% 30.10 in 10.0 mi SSE 9.2 mph - N/A   Clear
5:55 PM 82.4 °F 83.9 °F 64.4 °F 54% 30.10 in 10.0 mi SSE 9.2 mph - N/A   Clear
6:15 PM 82.4 °F 83.9 °F 64.4 °F 54% 30.10 in 10.0 mi SSE 8.1 mph - N/A   Clear
6:35 PM 82.4 °F 84.6 °F 66.2 °F 58% 30.10 in 10.0 mi SSE 9.2 mph - N/A   Clear
6:55 PM 80.6 °F 82.3 °F 64.4 °F 58% 30.10 in 10.0 mi SSE 10.4 mph - N/A   Clear
7:15 PM 80.6 °F 82.3 °F 64.4 °F 58% 30.09 in 10.0 mi SE 6.9 mph - N/A   Clear
7:35 PM 78.8 °F - 64.4 °F 61% 30.09 in 10.0 mi SE 6.9 mph - N/A   Clear
7:55 PM 77.0 °F - 64.4 °F 65% 30.10 in 10.0 mi Calm Calm - N/A   Clear
8:15 PM 71.6 °F - 64.4 °F 78% 30.09 in 10.0 mi Calm Calm - N/A   Clear
8:35 PM 68.0 °F - 64.4 °F 88% 30.10 in 7.0 mi Calm Calm - N/A   Clear
8:55 PM 68.0 °F - 64.4 °F 88% 30.10 in 10.0 mi Calm Calm - N/A   Clear
9:15 PM 66.2 °F - 64.4 °F 94% 30.10 in 7.0 mi Calm Calm - N/A   Clear
9:35 PM 66.2 °F - 64.4 °F 94% 30.10 in 7.0 mi Calm Calm - N/A   Clear
9:55 PM 64.4 °F - 62.6 °F 94% 30.10 in 5.0 mi Calm Calm - N/A   Clear
10:15 PM 64.4 °F - 62.6 °F 94% 30.10 in 10.0 mi Calm Calm - N/A   Clear
10:35 PM 62.6 °F - 62.6 °F 100% 30.11 in 4.0 mi Calm Calm - N/A   Clear
10:55 PM 62.6 °F - 62.6 °F 100% 30.11 in 1.8 mi Calm Calm - N/A   Mist
11:15 PM 62.6 °F - 62.6 °F 100% 30.11 in 0.5 mi Calm Calm - N/A Fog Fog
11:35 PM 62.6 °F - 62.6 °F 100% 30.10 in 0.2 mi Calm Calm - N/A Fog Fog
11:55 PM 62.6 °F - 60.8 °F 94% 30.11 in 0.5 mi Calm Calm - N/A Fog Fog